Location: Spruce Knob
(38.6995°N, 79.5330°W)
Time: 19:51:43
(UTC-05:00)

Transit 2A - Visible Passes

Search period start: 22 January 2022 00:00
Search period end: 01 February 2022 00:00
Orbit: 591 x 967 km, 66.7° (Epoch: 22 January)

Date Brightness Start Highest point End Pass type
(mag) Time Alt. Az. Time Alt. Az. Time Alt. Az.
22 Jan 8.5 20:06:06 10° N 20:06:58 13° N 20:06:58 13° N visible
23 Jan 8.2 19:32:17 10° N 19:34:00 15° NNE 19:34:00 15° NNE visible
23 Jan 9.0 21:14:31 10° NNW 21:14:31 10° NNW 21:14:31 10° NNW visible
24 Jan 8.1 18:58:42 10° N 19:01:07 14° NNE 19:01:07 14° NNE visible
24 Jan 8.4 20:40:16 10° NNW 20:41:37 17° NNW 20:41:37 17° NNW visible
25 Jan 8.2 18:25:50 10° NNE 18:27:06 11° NE 18:28:18 10° NE visible
25 Jan 7.7 20:06:07 10° NNW 20:08:49 26° N 20:08:49 26° N visible
26 Jan 7.2 19:32:03 10° NNW 19:36:08 31° NNE 19:36:08 31° NNE visible
26 Jan 8.7 21:15:29 10° NW 21:16:39 15° NW 21:16:39 15° NW visible
27 Jan 7.2 18:58:05 10° N 19:03:04 26° NE 19:03:35 26° NE visible
27 Jan 7.8 20:40:57 10° NW 20:44:07 30° NW 20:44:07 30° NW visible
28 Jan 7.6 18:24:14 10° N 18:28:31 20° NE 18:31:13 14° ENE visible
28 Jan 6.4 20:06:34 10° NNW 20:11:46 65° WNW 20:11:46 65° WNW visible
29 Jan 6.0 19:32:16 10° NNW 19:38:16 76° ENE 19:39:39 52° SE visible
29 Jan 8.8 21:17:47 10° WNW 21:20:14 14° W 21:20:14 14° W visible
30 Jan 6.3 18:58:06 10° NNW 19:03:58 53° ENE 19:07:54 18° SE visible
30 Jan 8.3 20:42:25 10° WNW 20:46:38 21° WSW 20:48:30 18° SW visible
31 Jan 6.7 18:24:02 10° NNW 18:29:34 37° NE 18:34:35 10° ESE visible
31 Jan 7.8 20:07:35 10° NW 20:12:38 32° WSW 20:17:16 10° S visible
